Location: Freiburg+im+Breisgau
(48.0359°N, 7.8195°E)
Time: 11:09:45
(UTC+01:00)

ISS - Pass Details

Date: 11 January 2018
Orbit: 402 x 407 km, 51.6° (Epoch: 18 January)

Event Time Altitude Azimuth Distance (km) Brightness Sun altitude
Exits shadow 07:13:57 15° 280° (W) 1,211 -2.1 -10.1°
Maximum altitude 07:16:24 41° 213° (SSW) 602 -3.1 -9.7°
Drops below altitude 10° 07:19:31 10° 141° (SE) 1,462 0.1 -9.2°
Sets 07:21:39 0° 134° (SE) 2,320 1.5 -8.9°
